Newton, KS

5:45 PM CST on November 12, 2019 (GMT -0600)
Newton City County

Weather History for KEWK - August, 2019

Change the Weather History Date:

Saturday, August 31, 2019

  Actual Average Record
Temperature  
Mean Temperature 66 °F -  
Max Temperature 73 °F 85 °F 105 °F (2011)
Min Temperature 60 °F 63 °F 57 °F (2017)
Cooling Degree Days 2    
Growing Degree Days 16 (Base 50)    
Moisture  
Dew Point 62 °F    
Average Humidity 88    
Maximum Humidity 100    
Minimum Humidity 71    
Precipitation  
Precipitation 0.00 in - - ()
Sea Level Pressure  
Sea Level Pressure 30.14 in    
Wind  
Wind Speed 6 mph (SE)    
Max Wind Speed 15 mph    
Max Gust Speed -    
Visibility 10 miles    
Events      
Averages and records for this station are not official NWS values.
T = Trace of Precipitation, MM = Missing Value Source: NWS Daily Summary

Daily Weather History Graph

Daily Weather History Graph

Search for Another Location

Airport or City:

Astronomy

Aug. 31, 2019 Rise Set
Actual Time 6:57 AM CDT 8:00 PM CDT
Civil Twilight 6:30 AM CDT 8:27 PM CDT
Nautical Twilight 5:58 AM CDT 8:59 PM CDT
Astronomical Twilight 5:25 AM CDT 9:32 PM CDT
Moon 8:15 AM CDT (8/31) 9:15 PM CDT (8/31)
Length of Visible Light 13h 56m
Length of Day
13h 02m
New Moon, 3% of the Moon is Illuminated
Aug 31
New Moon
Sep 5
First Quarter
Sep 13
Full
Sep 21
Last Quarter
Sep 28
New

Hourly Weather History & Observations

Time (CDT) Temp. Dew Point Humidity Pressure Visibility Wind Dir Wind Speed Gust Speed Precip Events Conditions
12:56 AM 64.0 °F 63.0 °F 96% 30.15 in 10.0 mi East 4.6 mph - N/A   Clear
1:56 AM 64.0 °F 63.0 °F 96% 30.14 in 10.0 mi ESE 8.1 mph - N/A   Scattered Clouds
2:56 AM 63.0 °F 62.1 °F 97% 30.13 in 10.0 mi SE 3.5 mph - N/A   Clear
4:56 AM 61.0 °F 61.0 °F 100% 30.13 in 10.0 mi South 5.8 mph - N/A   Clear
5:56 AM 62.1 °F 61.0 °F 96% 30.14 in 10.0 mi Calm Calm - N/A   Clear
6:47 AM 60.8 °F 60.8 °F 100% 30.17 in 10.0 mi ESE 6.9 mph - N/A   Overcast
6:56 AM 62.1 °F 61.0 °F 96% 30.14 in 10.0 mi ESE 4.6 mph - N/A   Overcast
7:28 AM 60.8 °F 60.8 °F 100% 30.18 in 10.0 mi East 3.5 mph - N/A   Mostly Cloudy
7:56 AM 63.0 °F 62.1 °F 97% 30.16 in 10.0 mi SE 4.6 mph - N/A   Mostly Cloudy
8:31 AM 62.6 °F 62.6 °F 100% 30.18 in 10.0 mi SE 5.8 mph - N/A   Scattered Clouds
8:56 AM 64.0 °F 62.1 °F 93% 30.15 in 10.0 mi ESE 8.1 mph - N/A   Mostly Cloudy
9:16 AM 64.4 °F 60.8 °F 88% 30.18 in 10.0 mi SE 8.1 mph - N/A   Mostly Cloudy
9:56 AM 64.0 °F 61.0 °F 90% 30.19 in 10.0 mi SW 3.5 mph - N/A   Overcast
10:43 AM 64.4 °F 60.8 °F 88% 30.22 in 10.0 mi Calm Calm - N/A   Overcast
10:56 AM 64.9 °F 61.0 °F 87% 30.18 in 10.0 mi South 4.6 mph - N/A   Overcast
11:07 AM 64.4 °F 60.8 °F 88% - 10.0 mi SSE 5.8 mph - N/A   Mostly Cloudy
11:56 AM 64.9 °F 60.1 °F 84% 30.14 in 10.0 mi ESE 11.5 mph - N/A   Clear
12:56 PM 69.1 °F 62.1 °F 78% 30.11 in 10.0 mi ESE 15.0 mph - N/A   Clear
1:56 PM 71.1 °F 62.1 °F 73% 30.12 in 10.0 mi North 10.4 mph - N/A   Overcast
2:56 PM 70.0 °F 62.1 °F 76% 30.09 in 10.0 mi ESE 9.2 mph - N/A   Clear
3:56 PM 73.0 °F 64.0 °F 73% 30.09 in 10.0 mi Variable 5.8 mph - N/A   Overcast
4:56 PM 73.0 °F 63.0 °F 71% 30.09 in 3.0 mi East 6.9 mph - N/A   Haze
5:56 PM 73.9 °F 64.0 °F 71% 30.09 in 10.0 mi SSE 3.5 mph - N/A   Clear
6:56 PM 73.0 °F 63.0 °F 71% 30.08 in 10.0 mi SE 9.2 mph - N/A   Clear
7:56 PM 70.0 °F 64.0 °F 81% 30.09 in 10.0 mi ESE 6.9 mph - N/A   Scattered Clouds
8:56 PM 66.9 °F 64.0 °F 90% 30.11 in 10.0 mi East 5.8 mph - N/A   Clear
10:56 PM 66.0 °F 64.9 °F 96% 30.14 in 10.0 mi ESE 6.9 mph - N/A   Clear
11:56 PM 64.9 °F 64.0 °F 97% 30.13 in 10.0 mi SE 6.9 mph - N/A   Clear